Change the Weather History Date:

Friday, March 15, 2013

  Actual Average Record
Temperature  
Mean Temperature 41 °F 43 °F  
Max Temperature 54 °F 53 °F 82 °F (1944)
Min Temperature 28 °F 34 °F 10 °F (1993)
Degree Days  
Heating Degree Days 24 22  
Month to date heating degree days 431 365  
Since 1 July heating degree days 4141 4192  
Cooling Degree Days 0 0  
Month to date cooling degree days 0 0  
Year to date cooling degree days 0 0  
Moisture  
Dew Point 33 °F    
Average Humidity 71    
Maximum Humidity 92    
Minimum Humidity 50    
Precipitation  
Precipitation T in 0.14 in 1.24 in (1948)
Month to date precipitation 2.09 1.74  
Year to date precipitation 7.69 7.55  
Snow  
Snow 0.00 in 0.10 in 4.00 in (1896)
Month to date snowfall 5.5 1.8  
Since 1 July snowfall 21.9 20.4  
Snow Depth 0.00 in    
Sea Level Pressure  
Sea Level Pressure 29.99 in    
Wind  
Wind Speed 6 mph (SSW)    
Max Wind Speed 10 mph    
Max Gust Speed 15 mph    
Visibility 10 miles    
Events      
T = Trace of Precipitation, MM = Missing Value Source: NWS Daily Summary

Daily Weather History Graph

Daily Weather History Graph

Search for Another Location

Airport or City:

Trip Planner

Search our weather history database for the weather conditions in past years. The results will help you decide how hot, cold, wet, or windy it might be!

Date:

Astronomy

Mar. 15, 2013 Rise Set
Actual Time 7:49 AM EDT 7:45 PM EDT
Civil Twilight 7:23 AM EDT 8:12 PM EDT
Nautical Twilight 6:52 AM EDT 8:43 PM EDT
Astronomical Twilight 6:20 AM EDT 9:15 PM EDT
Moon 9:41 AM EDT (3/15) 11:56 PM EDT (3/15)
Length of Visible Light 12h 49m
Length of Day
11h 56m
Waxing Crescent, 15% of the Moon is Illuminated
Mar 15
Waxing Crescent
Mar 19
First Quarter
Mar 27
Full
Apr 3
Last Quarter
Apr 10
New

Hourly Weather History & Observations

Time (EDT) Temp. Windchill Dew Point Humidity Pressure Visibility Wind Dir Wind Speed Gust Speed Precip Events Conditions
12:52 AM 34.0 °F 28.8 °F 28.9 °F 82% 30.19 in 10.0 mi SW 5.8 mph - N/A   Clear
1:52 AM 33.1 °F 27.7 °F 28.9 °F 85% 30.17 in 10.0 mi SW 5.8 mph - N/A   Mostly Cloudy
2:52 AM 32.0 °F 28.7 °F 28.9 °F 88% 30.15 in 10.0 mi SSW 3.5 mph - N/A   Partly Cloudy
3:52 AM 30.0 °F 25.2 °F 28.0 °F 92% 30.12 in 9.0 mi South 4.6 mph - N/A   Clear
4:52 AM 30.9 °F 23.5 °F 28.9 °F 92% 30.08 in 9.0 mi South 8.1 mph - N/A   Clear
5:52 AM 30.0 °F 25.2 °F 28.0 °F 92% 30.08 in 8.0 mi South 4.6 mph - N/A   Clear
6:52 AM 28.9 °F 22.8 °F 27.0 °F 92% 30.06 in 8.0 mi South 5.8 mph - N/A   Partly Cloudy
7:52 AM 28.9 °F 21.9 °F 27.0 °F 92% 30.05 in 7.0 mi South 6.9 mph - N/A   Partly Cloudy
8:52 AM 33.1 °F 24.9 °F 30.0 °F 89% 30.04 in 8.0 mi SSW 10.4 mph - N/A   Scattered Clouds
9:52 AM 36.0 °F 30.3 °F 30.9 °F 82% 30.02 in 10.0 mi SSW 6.9 mph - N/A   Mostly Cloudy
10:52 AM 39.0 °F 33.4 °F 32.0 °F 76% 29.99 in 10.0 mi SSW 8.1 mph - N/A   Mostly Cloudy
11:52 AM 41.0 °F 35.8 °F 32.0 °F 70% 29.99 in 10.0 mi SW 8.1 mph - N/A   Overcast
12:52 PM 44.1 °F 39.5 °F 33.1 °F 65% 29.98 in 10.0 mi WSW 8.1 mph - N/A   Overcast
1:52 PM 46.9 °F - 34.0 °F 61% 29.98 in 10.0 mi WSW 6.9 mph - N/A   Overcast
2:52 PM 48.9 °F - 34.0 °F 56% 29.94 in 10.0 mi SSW 10.4 mph - N/A   Overcast
3:52 PM 51.1 °F - 35.1 °F 54% 29.92 in 10.0 mi SW 5.8 mph - N/A   Overcast
4:52 PM 53.1 °F - 36.0 °F 52% 29.89 in 10.0 mi WSW 8.1 mph - N/A   Overcast
5:52 PM 53.1 °F - 36.0 °F 52% 29.89 in 10.0 mi WSW 4.6 mph - N/A   Overcast
6:52 PM 53.1 °F - 37.0 °F 55% 29.89 in 10.0 mi Calm Calm - N/A   Overcast
7:52 PM 50.0 °F - 37.0 °F 61% 29.88 in 10.0 mi Calm Calm - N/A   Overcast
8:52 PM 50.0 °F - 37.0 °F 61% 29.86 in 10.0 mi Calm Calm - N/A   Overcast
9:52 PM 48.0 °F - 37.9 °F 68% 29.86 in 10.0 mi East 3.5 mph - N/A   Overcast
10:52 PM 48.9 °F - 37.9 °F 66% 29.82 in 10.0 mi East 8.1 mph - N/A   Overcast
11:52 PM 48.0 °F - 37.9 °F 68% 29.78 in 10.0 mi SE 9.2 mph - N/A   Overcast